When you browse on this site, cookies collect data to enhance your experience and personalize the content and advertising you see.
Visit our Privacy Policy to learn more. By continuing to use the site, you agree to this use of cookies and data.
  • In United Kingdom
  • List of Countries
  • For 7 days
  • Water Temperature
  • Satellite Maps
  • Weather Map
  • Weather Widgets
  • user-avatar
    Login

    Hourly Weather Monteria

    Today, 27 June, Thursday

    Time Temperature Precipitation Wind Pressure Humidity
    00:00 +27°C° 0.1 mm 2 mps 753 mmHg 94%
    01:00 +27°C° 0.1 mm 2 mps 753 mmHg 93%
    02:00 +27°C° 0.1 mm 2 mps 753 mmHg 93%
    03:00 +27°C° 0.1 mm 2 mps 753 mmHg 93%
    04:00 +27°C° 0.1 mm 2 mps 752 mmHg 93%
    05:00 +27°C° 0 mm 2 mps 753 mmHg 93%
    06:00 +28°C° 0 mm 2 mps 753 mmHg 93%
    07:00 +28°C° 0 mm 2 mps 754 mmHg 92%
    08:00 +29°C° 0.2 mm 2 mps 754 mmHg 87%
    09:00 +30°C° 0.2 mm 2 mps 754 mmHg 83%
    10:00 +32°C° 0.2 mm 2 mps 754 mmHg 78%
    11:00 +32°C° 0.6 mm 2 mps 754 mmHg 74%
    12:00 +33°C° 0.6 mm 1 mps 753 mmHg 70%
    13:00 +33°C° 0.6 mm 1 mps 753 mmHg 66%
    14:00 +33°C° 0.2 mm 1 mps 752 mmHg 68%
    15:00 +34°C° 0.2 mm 2 mps 752 mmHg 70%
    16:00 +34°C° 0.2 mm 2 mps 751 mmHg 73%
    17:00 +31°C° 0.3 mm 2 mps 752 mmHg 77%
    18:00 +30°C° 0.3 mm 3 mps 752 mmHg 82%
    19:00 +28°C° 0.3 mm 3 mps 752 mmHg 87%
    20:00 +28°C° 0.8 mm 2 mps 753 mmHg 88%
    21:00 +28°C° 0.8 mm 2 mps 753 mmHg 89%
    22:00 +27°C° 0.8 mm 2 mps 754 mmHg 90%
    23:00 +27°C° 0.2 mm 2 mps 754 mmHg 91%

    Tomorrow, 28 June, Friday

    Time Temperature Precipitation Wind Pressure Humidity
    00:00 +27°C° 0.2 mm 2 mps 753 mmHg 92%
    01:00 +27°C° 0.2 mm 2 mps 753 mmHg 92%
    02:00 +27°C° 0.3 mm 1 mps 753 mmHg 92%
    03:00 +27°C° 0.3 mm 1 mps 753 mmHg 93%
    04:00 +26°C° 0.3 mm 1 mps 752 mmHg 93%
    05:00 +27°C° 0 mm 1 mps 753 mmHg 93%
    06:00 +27°C° 0 mm 2 mps 753 mmHg 93%
    07:00 +27°C° 0 mm 2 mps 753 mmHg 93%
    08:00 +29°C° 0.5 mm 2 mps 754 mmHg 88%
    09:00 +30°C° 0.5 mm 2 mps 754 mmHg 84%
    10:00 +31°C° 0.5 mm 2 mps 754 mmHg 79%
    11:00 +32°C° 0.2 mm 1 mps 754 mmHg 75%
    12:00 +32°C° 0.2 mm 1 mps 753 mmHg 72%
    13:00 +33°C° 0.2 mm 1 mps 753 mmHg 68%
    14:00 +33°C° 0 mm 1 mps 753 mmHg 71%
    15:00 +34°C° 0 mm 2 mps 752 mmHg 73%
    16:00 +32°C° 0 mm 2 mps 752 mmHg 75%
    17:00 +31°C° 0.3 mm 2 mps 752 mmHg 80%
    18:00 +30°C° 0.3 mm 3 mps 752 mmHg 85%
    19:00 +28°C° 0.3 mm 3 mps 753 mmHg 89%
    20:00 +28°C° 0 mm 2 mps 753 mmHg 89%
    21:00 +28°C° 0 mm 2 mps 754 mmHg 89%
    22:00 +27°C° 0 mm 2 mps 754 mmHg 89%
    23:00 +27°C° 0.1 mm 2 mps 754 mmHg 90%

    Day after tomorrow, 29 June, Saturday

    Time Temperature Precipitation Wind Pressure Humidity
    00:00 +27°C° 0.1 mm 2 mps 754 mmHg 91%
    01:00 +27°C° 0.1 mm 2 mps 753 mmHg 91%
    02:00 +27°C° 0.1 mm 2 mps 753 mmHg 92%
    03:00 +26°C° 0.1 mm 2 mps 753 mmHg 92%
    04:00 +26°C° 0.1 mm 2 mps 753 mmHg 93%
    05:00 +27°C° 0 mm 2 mps 753 mmHg 93%
    06:00 +27°C° 0 mm 2 mps 754 mmHg 93%
    07:00 +27°C° 0 mm 2 mps 754 mmHg 92%
    08:00 +28°C° 0 mm 2 mps 754 mmHg 88%
    09:00 +30°C° 0 mm 2 mps 755 mmHg 83%
    10:00 +31°C° 0 mm 2 mps 755 mmHg 79%
    11:00 +32°C° 0 mm 1 mps 754 mmHg 75%
    12:00 +33°C° 0 mm 1 mps 754 mmHg 72%
    13:00 +33°C° 0 mm 1 mps 753 mmHg 68%
    14:00 +33°C° 0 mm 1 mps 753 mmHg 69%
    15:00 +33°C° 0 mm 1 mps 752 mmHg 70%
    16:00 +33°C° 0 mm 1 mps 751 mmHg 70%
    17:00 +32°C° 0 mm 2 mps 752 mmHg 76%
    18:00 +30°C° 0 mm 2 mps 752 mmHg 82%
    19:00 +29°C° 0 mm 3 mps 753 mmHg 88%
    20:00 +28°C° 1.5 mm 3 mps 753 mmHg 90%
    21:00 +28°C° 1.5 mm 2 mps 754 mmHg 92%
    22:00 +27°C° 1.5 mm 2 mps 754 mmHg 94%
    23:00 +27°C° 0.5 mm 2 mps 754 mmHg 95%

    30 June, Sunday

    Time Temperature Precipitation Wind Pressure Humidity
    00:00 +27°C° 0.5 mm 2 mps 754 mmHg 95%
    01:00 +27°C° 0.5 mm 2 mps 753 mmHg 95%
    02:00 +27°C° 2.4 mm 2 mps 753 mmHg 96%
    03:00 +27°C° 2.4 mm 2 mps 753 mmHg 96%
    04:00 +27°C° 2.4 mm 2 mps 753 mmHg 96%
    05:00 +27°C° 1.2 mm 2 mps 753 mmHg 96%
    06:00 +27°C° 1.2 mm 2 mps 754 mmHg 95%
    07:00 +27°C° 1.2 mm 2 mps 754 mmHg 94%
    08:00 +28°C° 0.8 mm 2 mps 754 mmHg 91%
    09:00 +29°C° 0.8 mm 2 mps 754 mmHg 87%
    10:00 +30°C° 0.8 mm 2 mps 755 mmHg 84%
    11:00 +31°C° 0.1 mm 2 mps 754 mmHg 78%
    12:00 +32°C° 0.1 mm 2 mps 753 mmHg 73%
    13:00 +33°C° 0.1 mm 1 mps 753 mmHg 68%
    14:00 +33°C° 0.1 mm 1 mps 752 mmHg 69%
    15:00 +33°C° 0.1 mm 1 mps 752 mmHg 71%
    16:00 +33°C° 0.1 mm 1 mps 751 mmHg 72%
    17:00 +31°C° 0.4 mm 2 mps 752 mmHg 78%
    18:00 +30°C° 0.4 mm 2 mps 752 mmHg 83%
    19:00 +28°C° 0.4 mm 3 mps 753 mmHg 89%
    20:00 +28°C° 0.2 mm 3 mps 753 mmHg 89%
    21:00 +28°C° 0.2 mm 3 mps 754 mmHg 90%
    22:00 +27°C° 0.2 mm 3 mps 754 mmHg 90%
    23:00 +27°C° 1.2 mm 3 mps 754 mmHg 91%

    1 July, Monday

    Time Temperature Precipitation Wind Pressure Humidity
    00:00 +26°C° 1.2 mm 3 mps 754 mmHg 92%
    01:00 +26°C° 1.2 mm 2 mps 754 mmHg 93%
    02:00 +26°C° 2 mm 2 mps 754 mmHg 94%
    03:00 +26°C° 2 mm 3 mps 754 mmHg 95%
    04:00 +26°C° 2 mm 3 mps 754 mmHg 95%
    05:00 +26°C° 2 mm 3 mps 755 mmHg 96%
    06:00 +26°C° 2 mm 3 mps 755 mmHg 96%
    07:00 +26°C° 2 mm 3 mps 755 mmHg 97%
    08:00 +27°C° 0.5 mm 3 mps 756 mmHg 94%
    09:00 +27°C° 0.5 mm 2 mps 756 mmHg 92%
    10:00 +28°C° 0.5 mm 2 mps 756 mmHg 90%
    11:00 +29°C° 0 mm 2 mps 755 mmHg 86%
    12:00 +30°C° 0 mm 2 mps 755 mmHg 82%
    13:00 +31°C° 0 mm 1 mps 754 mmHg 79%
    14:00 +31°C° 0 mm 1 mps 754 mmHg 77%
    15:00 +31°C° 0 mm 1 mps 753 mmHg 76%
    16:00 +32°C° 0 mm 1 mps 753 mmHg 74%
    17:00 +31°C° 0.1 mm 1 mps 753 mmHg 78%
    18:00 +30°C° 0.1 mm 1 mps 754 mmHg 82%
    19:00 +28°C° 0.1 mm 2 mps 754 mmHg 87%
    20:00 +28°C° 1.3 mm 2 mps 755 mmHg 88%
    21:00 +27°C° 1.3 mm 2 mps 755 mmHg 90%
    22:00 +26°C° 1.3 mm 2 mps 755 mmHg 92%
    23:00 +26°C° 0.8 mm 2 mps 755 mmHg 93%

    2 July, Tuesday

    Time Temperature Precipitation Wind Pressure Humidity
    00:00 +26°C° 0.8 mm 2 mps 755 mmHg 93%
    01:00 +26°C° 0.8 mm 2 mps 755 mmHg 94%
    02:00 +26°C° 0 mm 2 mps 755 mmHg 94%
    03:00 +26°C° 0 mm 2 mps 754 mmHg 95%
    04:00 +25°C° 0 mm 2 mps 754 mmHg 95%
    05:00 +26°C° 0 mm 2 mps 755 mmHg 94%
    06:00 +26°C° 0 mm 1 mps 755 mmHg 94%
    07:00 +26°C° 0 mm 1 mps 755 mmHg 94%
    08:00 +27°C° 0.1 mm 1 mps 755 mmHg 89%
    09:00 +29°C° 0.1 mm 1 mps 756 mmHg 85%
    10:00 +30°C° 0.1 mm 1 mps 756 mmHg 81%
    11:00 +30°C° 2.3 mm 1 mps 755 mmHg 79%
    12:00 +31°C° 2.3 mm 1 mps 755 mmHg 78%
    13:00 +31°C° 2.3 mm 1 mps 754 mmHg 77%
    14:00 +31°C° 0.7 mm 2 mps 754 mmHg 79%
    15:00 +30°C° 0.7 mm 2 mps 754 mmHg 82%
    16:00 +30°C° 0.7 mm 3 mps 753 mmHg 84%
    17:00 +29°C° 0 mm 3 mps 753 mmHg 85%
    18:00 +28°C° 0 mm 2 mps 754 mmHg 86%
    19:00 +27°C° 0 mm 2 mps 754 mmHg 88%
    20:00 +27°C° 0.2 mm 1 mps 755 mmHg 87%
    21:00 +27°C° 0.2 mm 1 mps 755 mmHg 87%
    22:00 +25°C° 0.2 mm 0 mps 756 mmHg 87%
    23:00 +27°C° 0.4 mm 1 mps 755 mmHg 89%
    Show more